TIME,DELAY(SENSOR),PRES,T(CTD),SAL,OXYGEN,RAWTEMP,T(OPTODE),TCPHASE,FLUOR,BETA(BETA700),BETA(BETA412),BETA(BETA440),CDOM,C(CSC),ED(ED412.40),ED(ED444.00),ED(ED489.70),ED(ED554.30),LU(LU411.80),LU(LU443.40),LU(LU489.60),LU(LU554.10),COMP,TILTX,TILTX(TILTY),CHECK
1342733350,5809,497.4599914550781000,6.8712000846862790,34.2036018371582000,62.4597587585449200,591.8300170898438000,6.8478717803955080,50.9814910888671900,53,108,91,81,80,15362,2147749714,2147424118,2148000777,2147874870,2147629266,2147077275,2148241225,2147203062,1745,5,13,60083
1342733504,5806,487.1199951171875000,7.0226998329162600,34.1938018798828100,67.4401092529296900,586.7540283203125000,7.0113329887390140,50.2632713317871100,52,105,88,81,79,15360,2147747117,2147420324,2148002395,2147875181,2147631542,2147077613,2148239972,2147205229,3142,4,13,57198
1342733673,5808,474.9400024414062500,7.3654999732971190,34.1916999816894500,73.4403533935546900,576.1633300781250000,7.3516268730163570,49.3585014343261700,53,105,91,80,79,15363,2147746139,2147421092,2148001408,2147876297,2147628909,2147086198,2148236754,2147202377,3398,4,13,31513
1342733794,5809,463.8500061035156000,7.5254001617431640,34.1766014099121100,81.6872329711914000,571.0529174804688000,7.5154719352722170,48.2860183715820300,52,106,90,81,79,15359,2147747437,2147422217,2148000987,2147877796,2147626102,2147085933,2148241069,2147204461,792,5,13,48429
1342733907,5810,452.8200073242187500,7.7028999328613280,34.1759986877441400,87.7071533203125000,565.6898803710938000,7.6871681213378910,47.5097999572753900,51,106,92,80,79,15361,2147746971,2147421531,2148002084,2147877787,2147625664,2147087561,2148239323,2147204278,740,4,13,43814
1342734017,5805,441.6499938964844000,7.8345999717712400,34.1715011596679700,92.4666976928711000,561.6882934570312000,7.8151168823242190,46.9115295410156250,52,109,91,81,78,15357,2147744941,2147423259,2148001929,2147874422,2147626788,2147085065,2148233910,2147202203,3473,4,13,3393
1342734116,5808,430.9599914550781000,7.9756999015808105,34.1661987304687500,98.4714965820312500,556.4636840820312000,7.9819641113281250,46.1737213134765600,51,107,90,81,77,15362,2147745435,2147424868,2148001170,2147874953,2147622354,2147086107,2148236461,2147202989,471,4,13,52228
1342734245,5810,418.1099853515625000,8.2286996841430660,34.1600990295410160,107.0362014770507800,549.1696777343750000,8.2145175933837890,45.1548614501953100,50,111,91,81,79,15361,2147744438,2147425453,2148000036,2147875245,2147624484,2147087990,2148229083,2147206016,1031,4,13,42094
1342734377,5807,407.3999938964844000,8.3809003829956050,34.1567993164062500,114.8068008422851600,544.6602172851562000,8.3580732345581050,44.2992591857910160,50,108,90,80,78,15360,2147746249,2147420443,2148001993,2147874697,2147623808,2147088521,2148231954,2147203136,811,4,13,54783
1342734523,5803,396.4500122070312500,8.4849996566772460,34.1545982360839840,121.3116989135742200,541.2128295898438000,8.4677047729492190,43.6115303039550800,50,108,88,80,77,15356,2147743680,2147424466,2148000822,2147873965,2147621019,2147086208,2148231259,2147202450,867,4,13,62911
1342734688,5810,386.2000122070312500,8.7062997817993160,34.1502990722656250,129.6638946533203000,534.2418823242188000,8.6890983581542970,42.7172012329101560,50,106,88,80,76,15360,2147741604,2147420946,2147999680,2147874733,2147622765,2147093037,2148226578,2147205092,890,4,13,825
1342734896,5807,374.8599853515625000,9.0017004013061520,34.1183013916015600,152.3484954833984400,525.1719970703125000,8.9765892028808600,40.6209907531738300,50,106,89,81,74,15367,2147741558,2147424420,2147997778,2147874386,2147616429,2147097033,2148227437,2147201234,1577,4,13,10335
1342735083,5809,364.1900024414062500,9.4309997558593750,34.1274986267089840,168.7619018554687500,511.2095031738281000,9.4179458618164060,39.1203689575195300,50,105,90,80,74,15365,2147737408,2147423131,2147999451,2147872694,2147614720,2147099547,2148222180,2147204992,1955,4,13,9698
1342735228,5807,352.4299926757812500,9.8093996047973630,34.1302986145019500,184.4277954101562500,499.0065002441406000,9.8025236129760740,37.8110504150390600,50,107,87,80,73,15364,2147740854,2147422857,2148001078,2147872923,2147613869,2147103424,2148225325,2147204717,1244,4,14,49913
1342735338,5807,340.5199890136719000,10.0635004043579100,34.1369018554687500,194.9615020751953000,490.7536926269531000,10.0620298385620120,36.9832191467285160,50,107,90,81,73,15364,2147737664,2147425654,2148004361,2147870939,2147612937,2147097837,2148218331,2147205138,247,3,13,6166
1342735437,5808,329.4100036621094000,10.4055995941162110,34.1507987976074200,204.2648010253906200,479.7434997558594000,10.4075202941894530,36.2233200073242200,49,106,88,80,71,15365,2147737984,2147422052,2148004818,2147874870,2147612443,2147106240,2148222683,2147205796,213,5,13,28843
1342735555,5809,317.7399902343750000,10.8456001281738280,34.1696014404296900,209.5641937255859400,466.0007019042969000,10.8376598358154300,35.6811103820800800,49,109,87,81,70,15362,2147737362,2147423762,2148003446,2147872018,2147605988,2147106011,2148216594,2147207204,563,4,13,49948
1342735698,5810,307.3500061035156000,11.1934995651245120,34.1847000122070300,212.9615936279297000,455.1437988281250000,11.1766700744628900,35.3073692321777340,49,107,93,82,70,15365,2147735250,2147425051,2148014628,2147875840,2147608265,2147110125,2148221330,2147207222,3359,4,13,52241
1342735873,5806,295.6499938964844000,11.8519001007080080,34.2131004333496100,213.3587036132812500,432.9960021972656000,11.8661403656005860,34.9285316467285160,48,105,89,79,70,15362,2147734592,2147425773,2148014390,2147878052,2147607926,2147113801,2148214893,2147209956,946,3,14,9223
1342736016,5810,285.1900024414062500,12.4748001098632810,34.2522010803222660,209.9051971435547000,413.1919860839844000,12.4804697036743160,34.8131294250488300,48,105,92,81,70,15363,2147733092,2147430089,2148024960,2147875355,2147601728,2147124772,2148220288,2147206774,163,4,13,57420
1342736173,5812,272.3399963378906000,13.1211004257202150,34.2971000671386700,210.7888031005859400,392.8836975097656000,13.1085195541381840,34.4448890686035160,48,105,87,80,71,15360,2147730541,2147430080,2148026825,2147872128,2147598857,2147126857,2148216466,2147212059,2600,4,13,17453
1342736283,5808,260.8299865722656000,13.7392997741699220,34.3464012145996100,217.8202972412109400,370.8413085937500000,13.7882404327392580,33.7132606506347660,49,104,92,81,69,15360,2147728841,2147433005,2148035638,2147875108,2147595995,2147134985,2148212498,2147210422,3221,4,15,43524
1342736393,5809,249.1999969482422000,14.2203998565673830,34.3941993713378900,214.7357025146484400,356.8486938476562500,14.2187995910644530,33.6725502014160160,49,105,90,81,69,15359,2147728896,2147444342,2148078729,2147875702,2147591908,2147147510,2148232292,2147210020,1342,4,15,59011
1342736505,5809,237.4400024414062500,14.7961997985839840,34.4511985778808600,214.4080047607422000,338.2999877929687500,14.7885704040527340,33.4135818481445300,48,107,94,82,68,15355,2147724928,2147433856,2148030765,2147872960,2147589412,2147141696,2148213184,2147211437,1484,4,14,52876
1342736626,5808,226.1300048828125000,15.5508003234863280,34.5302009582519500,213.7088928222656200,313.3912048339844000,15.5522203445434570,33.0862693786621100,48,104,85,79,66,15355,2147723593,2147441408,2148049444,2147872822,2147586578,2147155309,2148212763,2147214006,1886,3,14,26565
1342736761,5809,216.3600006103515600,16.2961006164550780,34.6138992309570300,213.7837066650390600,289.0794067382812500,16.2962799072265620,32.7299194335937500,49,105,90,78,68,15356,2147734034,2147516004,2148286107,2147871003,2147586322,2147197641,2148334198,2147222546,3241,3,14,9079
1342736937,5808,204.7500000000000000,17.3027000427246100,34.7349014282226560,214.0487060546875000,256.7048034667969000,17.2857494354248050,32.2549514770507800,50,105,89,82,65,15345,2147736585,2147555190,2148365421,2147873590,2147585508,2147230125,2148368091,2147224246,2231,3,14,12777
1342737036,5806,197.8500061035156200,17.6800994873046880,34.7807998657226560,214.0872039794922000,243.6649932861328000,17.6840305328369140,32.0698318481445300,53,109,88,81,66,15343,2147744658,2147599277,2148477888,2147873892,2147586422,2147256164,2148407433,2147228544,859,3,14,565
1342737110,5809,192.9499969482422000,17.9216995239257800,34.7820014953613300,211.2870941162109400,236.2541046142578000,17.9103507995605470,32.1196403503418000,56,107,91,81,66,15341,2147752310,2147644507,2148581357,2147873170,2147588809,2147285046,2148461184,2147230966,865,3,14,5147
1342737176,5807,189.1900024414062500,17.9934005737304700,34.7882995605468750,209.9492950439453000,233.7541961669922000,17.9866905212402340,32.1584205627441400,57,110,89,81,66,15340,2147760201,2147677842,2148647643,2147874496,2147588681,2147301988,2148487954,2147233782,1093,3,15,20934
1342737242,5808,185.7799987792968800,18.0333995819091800,34.7952003479003900,209.4573974609375000,232.1076965332031200,18.0369701385498050,32.1630897521972660,57,109,87,81,66,15338,2147771931,2147712301,2148724562,2147874825,2147594166,2147317440,2148523757,2147238976,1048,3,15,35115
1342737341,5812,181.7400054931640600,18.1476001739501950,34.8054008483886700,209.6412963867187500,228.5836029052734400,18.1445903778076170,32.1037216186523440,57,109,88,82,66,15338,2147746788,2147591881,2148384091,2147874468,2147587483,2147255460,2148369874,2147227565,707,3,15,48543
1342737453,5811,178.3800048828125000,18.8903999328613280,34.8800010681152340,209.3043975830078000,206.6293945312500000,18.8150691986084000,31.8183994293212900,62,108,88,82,65,15335,2147799204,2147779099,2148854016,2147874761,2147600630,2147356553,2148584905,2147239616,3501,3,15,3032
1342737662,5806,174.0000000000000000,19.4171009063720700,34.9369010925293000,210.2559967041015600,188.1813964843750000,19.3786907196044920,31.5132999420166000,71,112,90,82,65,15326,2147810605,2147805092,2148882011,2147875419,2147605805,2147375021,2148591387,2147245174,867,3,15,18638
1342737769,5806,169.1600036621093800,19.6930999755859380,34.9688987731933600,210.4042968750000000,178.7933044433593800,19.6656398773193360,31.3779392242431640,71,115,90,82,65,15316,2147863094,2147965531,2149233956,2147878107,2147623012,2147457206,2148730486,2147257097,617,3,15,21952
1342737835,5812,165.5500030517578000,19.7891006469726560,34.9808998107910160,210.8343048095703000,174.9980926513672000,19.7816696166992200,31.3028793334960940,79,117,89,83,65,15318,2147895149,2148043136,2149383506,2147881152,2147631963,2147495488,2148804132,2147254509,1149,2,16,12117
1342737923,5810,161.5800018310547000,20.0601997375488280,35.0041007995605500,211.1363983154297000,166.6316070556640600,20.0375308990478500,31.1736602783203120,83,120,89,82,63,15309,2147935058,2148133824,2149552923,2147883081,2147648512,2147537792,2148868516,2147264237,754,3,15,50292
1342738058,5809,158.5500030517578000,20.4122009277343750,35.0419998168945300,212.5567016601562500,156.3730926513672000,20.3514194488525400,30.9596900939941400,88,120,91,83,66,15302,2147985380,2148236114,2149759890,2147882870,2147666907,2147591881,2148945984,2147270966,3184,3,16,15246
1342738368,5811,153.7700042724609400,21.0596008300781250,35.1351013183593750,217.1569976806640600,134.2602996826172000,21.0287208557128900,30.4234008789062500,95,122,91,84,63,15284,2148023158,2148237970,2149666624,2147885504,2147681133,2147590683,2148898048,2147266889,3539,2,15,14526
1342738434,5809,150.3600006103515600,21.1907997131347660,35.1344985961914060,219.2330017089843800,129.1493988037109400,21.1854190826416000,30.2492809295654300,107,124,92,83,62,15275,2148131291,2148456411,2150082697,2147887945,2147727250,2147694436,2149057709,2147281737,2538,2,15,3802
1342738511,5808,146.5299987792968800,21.2588005065917970,35.1333007812500000,220.5189056396484400,126.9990997314453100,21.2513694763183600,30.1555004119873050,115,130,89,84,62,15265,2148342610,2148894427,2150924096,2147894582,2147804763,2147891090,2149394788,2147306002,1463,3,16,54227
1342738599,5807,142.6499938964843800,21.3160991668701170,35.1355018615722660,221.1665954589843800,124.9917984008789000,21.3129501342773440,30.0964603424072270,121,128,92,85,62,15252,2148125677,2148317019,2149641508,2147884379,2147722166,2147629229,2148889005,2147268937,562,3,15,44872
1342738711,5811,139.2299957275390600,21.4417991638183600,35.1413993835449200,221.3712005615234400,121.2282028198242200,21.4284305572509770,30.0369491577148440,129,130,93,85,64,15233,2148781220,2149645129,2152132425,2147909165,2147956854,2148190326,2149830793,2147344146,2894,3,16,7247
1342738898,5806,135.4600067138672000,21.7287998199462900,35.1618995666503900,222.4436035156250000,112.0048980712890600,21.7115993499755860,29.8629093170166000,146,137,92,84,63,15212,2149182464,2150243465,2152992640,2147923748,2148075693,2148380361,2150095277,2147365741,1046,2,15,28300
1342739042,5810,130.4299926757812500,21.9181995391845700,35.1755981445312500,226.3975982666015600,105.6102981567382800,21.9080696105957030,29.5843696594238280,142,132,93,84,63,15202,2149895506,2151319414,2154516781,2147942811,2148337929,2148797229,2150644379,2147415286,823,2,15,10803
1342739119,5810,126.5800018310546900,21.9846992492675780,35.1790008544921900,228.2967987060547000,103.3823013305664000,21.9765605926513670,29.4629898071289060,151,131,90,84,62,15203,2150593499,2152332690,2155944118,2147969216,2148591360,2149193097,2151156379,2147460644,304,2,15,30824
1342739196,5806,122.6999969482421900,22.0918998718261720,35.1866989135742200,229.3728942871093800,99.8127365112304700,22.0863208770751950,29.3654594421386720,156,134,95,84,62,15187,2151478564,2153590912,2157560658,2147996699,2148905188,2149663725,2151721700,2147509851,228,3,15,43389
1342739287,5812,119.0400009155273400,22.4230995178222660,35.2267990112304700,232.5149993896484400,90.5934371948242200,22.3699893951416000,29.0976009368896500,159,136,95,85,61,15177,2152588342,2155176685,2159570688,2148030281,2149300918,2150227766,2152402560,2147579574,388,3,15,55531
1342739507,5811,115.8600006103515600,22.6602993011474600,35.1988983154296900,236.4962005615234400,81.5773162841796900,22.6477108001709000,28.7973194122314450,115,125,93,84,61,15212,2154201664,2157381979,2162057060,2148069476,2149975250,2151150747,2153390464,2147674669,2506,2,16,50914
1342739673,5808,112.0000000000000000,22.9263992309570300,35.1994018554687500,237.8798065185547000,73.0401535034179700,22.9109592437744140,28.6261692047119140,90,128,89,85,60,15221,2156461467,2160118747,2164918985,2148139529,2151079003,2152663277,2154968448,2147812352,2495,2,16,24708
1342739783,5805,108.1100006103515600,23.1119995117187500,35.2058982849121100,239.6224975585937500,67.2032165527343800,23.0911102294921880,28.4733791351318360,86,127,92,86,59,15217,2158624118,2162709321,2167656758,2148215122,2152181613,2154122541,2156423634,2147953499,2899,2,16,50114
1342739906,5810,103.5800018310546900,23.3505992889404300,35.2318992614746100,239.9687042236328000,59.5482292175293000,23.3276004791259770,28.3619804382324220,84,131,95,86,58,15207,2162150848,2166877248,2172064694,2148358409,2154009636,2156482733,2158719808,2148154916,2285,2,16,35995
1342739994,5803,99.5699996948242200,23.5226993560791000,35.2229003906250000,241.7046966552734400,53.4928703308105500,23.5148391723632800,28.2085208892822270,80,135,95,85,59,15207,2165267364,2170307035,2175435465,2148497709,2155853778,2158714934,2160744749,2148335954,2599,2,16,37177
1342740050,5808,97.5000000000000000,23.5911006927490230,35.2226982116699200,242.7364044189453000,51.4490089416503900,23.5780792236328120,28.1370201110839840,80,128,94,86,59,15205,2167383725,2172645275,2177810038,2148593590,2157146733,2160248493,2162117659,2148463387,2789,2,16,22099
1342740105,5809,95.5400009155273400,23.7240009307861330,35.2201004028320300,242.8383941650390600,47.6988105773925800,23.6941699981689450,28.0859794616699220,76,129,95,87,58,15204,2169234432,2174568045,2179685458,2148688484,2158400429,2161699721,2163378797,2148578157,3037,2,16,37322
1342740160,5811,93.8499984741211000,23.9102001190185550,35.2112998962402340,243.0460968017578000,43.3732910156250000,23.8281402587890620,28.0232601165771500,74,128,94,86,58,15199,2170741403,2176072173,2181161627,2148769801,2159439936,2162833654,2164269723,2148660123,63,3,15,58949
1342740237,5807,91.4400024414062500,23.9682006835937500,35.2103004455566400,244.1884002685547000,39.5050811767578100,23.9480304718017580,27.9247398376464840,72,128,95,87,59,15190,2174637778,2180317723,2185617965,2149003776,2161996324,2165814253,2166895469,2148899209,496,2,15,31669
1342740292,5808,89.0100021362304700,24.0576000213623050,35.2070007324218750,245.0043029785156200,36.4401702880859400,24.0430698394775400,27.8512802124023440,73,129,92,87,58,15189,2177740022,2183478354,2188665161,2149157458,2164402898,2168420571,2168999926,2149090962,794,2,15,4983
1342740347,5805,86.6800003051757800,24.1177997589111330,35.2056007385253900,245.7270050048828000,34.2121009826660160,24.1121902465820300,27.7921390533447270,73,129,94,86,57,15192,2180784603,2186606893,2191750372,2149399762,2166826889,2170944274,2170948105,2149290953,228,2,16,17388
1342740402,5808,84.6100006103515600,24.2562007904052730,35.1971015930175800,245.8274993896484400,29.5816001892089840,24.2559204101562500,27.7307395935058600,70,129,95,85,57,15190,2183402861,2189110162,2194075190,2149583104,2169183168,2173442486,2172945344,2149473325,129,2,15,21047
1342740457,5809,82.8099975585937500,24.3220005035400400,35.1986007690429700,246.4248046875000000,27.8424205780029300,24.3099308013916000,27.6833992004394530,69,127,92,86,59,15177,2186796077,2192873499,2198224713,2149863515,2171736475,2176169024,2175179666,2149697307,325,2,16,38140
1342740512,5805,81.0599975585937500,24.3602008819580080,35.1977996826171900,246.7445983886718800,26.8471393585205080,24.3408508300781250,27.6572494506835940,72,129,92,87,56,15184,2189714203,2195718930,2200894217,2150080649,2174493110,2178951488,2177301174,2149907876,915,3,16,15815
1342740590,5806,77.8899993896484400,24.3717002868652340,35.1988983154296900,246.9160003662109400,25.7862701416015620,24.3738098144531250,27.6369590759277340,73,128,95,87,57,15178,2196962925,2203274486,2208473142,2150783753,2180199972,2184732297,2181789010,2150395355,1675,2,16,25282
1342740645,5809,74.9499969482421900,24.5196990966796880,35.1880989074707000,246.6777954101562500,21.5594806671142580,24.5051898956298830,27.5954093933105470,70,130,96,86,55,15177,2202525449,2208355776,2213008795,2151331958,2185120201,2189517275,2185435547,2150793161,1153,2,16,5493
1342740700,5807,72.2699966430664000,24.5298995971679700,35.1893005371093750,246.8571929931640600,20.7472305297851560,24.5304508209228500,27.5776290893554700,70,128,95,88,59,15175,2208499565,2214345371,2218813476,2151971017,2190525302,2194759232,2189418633,2151218852,150,2,16,10195
1342740755,5810,69.4700012207031200,24.6250000000000000,35.1796989440918000,246.3614044189453000,17.5953807830810550,24.6284904479980470,27.5603904724121100,68,129,94,87,55,15173,2215122377,2220699803,2224607817,2152716178,2196944301,2201020681,2194220260,2151770523,3261,2,16,41232
1342740810,5806,66.7699966430664000,24.8927993774414060,35.1707000732421900,245.3831939697265600,9.9265241622924800,24.8672695159912100,27.5088291168212900,69,129,93,85,58,15176,2222562550,2228449901,2232503981,2153819419,2203689773,2207360100,2198876489,2152373275,2628,2,16,48036
1342740865,5807,64.5299987792968800,24.9482002258300780,35.1725997924804700,244.8171997070312500,7.4375419616699220,24.9448394775390620,27.5030097961425780,67,130,95,86,57,15174,2229008256,2234828443,2238737517,2154837284,2209953033,2213380160,2203464502,2152956196,2202,2,16,63399
1342740922,5808,62.4000015258789060,25.2691001892089840,35.1781997680664060,242.9846038818359400,-1.4334169626235962,25.2215900421142580,27.4742107391357420,71,130,94,86,60,15146,2235195136,2241433536,2245565568,2155989659,2215191734,2218204032,2207115264,2153479725,2997,1,16,7384
1342740977,5809,61.0099983215332000,25.4013996124267580,35.1817016601562500,241.5735015869140600,-6.4641947746276855,25.3787403106689450,27.4745197296142580,74,132,93,89,59,15147,2237945161,2244053595,2247867684,2156548379,2218219922,2220918573,2209098450,2153764086,2979,2,16,11845
1342741087,5807,59.8100013732910160,25.4925003051757800,35.1932983398437500,240.0704040527343800,-9.8194236755371100,25.4836406707763670,27.4999504089355470,69,133,93,85,56,15160,2238990838,2244689709,2248337462,2157022400,2219623798,2222042477,2209818706,2153902153,3497,2,16,17595
1342741353,5806,57.3100013732910160,25.7028007507324220,35.2076988220214840,238.0599975585937500,-16.7567691802978500,25.7007503509521500,27.5043106079101560,66,129,93,85,58,15161,2238966491,2244205312,2246436306,2157591570,2226642002,2226933924,2212362368,2154323410,2966,2,16,27439
1342741430,5803,54.8100013732910160,25.7289009094238280,35.2098007202148440,237.5995941162109400,-17.5493507385253900,25.7255802154541000,27.5150699615478500,65,127,95,85,59,15155,2259428105,2267050212,2270690212,2161255744,2245792283,2245101741,2226165266,2156187081,2728,2,16,20260
1342741485,5810,52.5499992370605500,25.7311992645263670,35.2100982666015600,237.4031066894531200,-17.8330898284912100,25.7344608306884770,27.5205097198486330,62,128,94,87,58,15153,2266197632,2273871497,2277359369,2163392457,2257175771,2255275712,2233574326,2157349805,2835,2,16,27975
1342741562,5805,48.2999992370605500,25.7469997406005860,35.2108001708984400,237.3553924560547000,-18.2480106353759770,25.7474594116210940,27.5174598693847660,58,127,95,87,56,15163,2283734272,2292575296,2297074560,2170082358,2279393408,2275024000,2247595794,2159882788,2908,2,16,47205
1342741617,5807,44.4900016784668000,25.7448997497558600,35.2106018066406250,237.5216979980468800,-18.2159500122070300,25.7464599609375000,27.5105495452880860,59,131,94,85,55,15147,2299634870,2309774884,2315215716,2176625261,2301780013,2295170368,2261814208,2162591606,2825,2,16,41300
1342741672,5803,40.5299987792968750,25.7430000305175780,35.2104988098144500,237.4279937744140600,-18.2540092468261720,25.7476501464843750,27.5141601562500000,60,132,95,87,55,15159,2316064768,2326659382,2332038729,2184291748,2322906678,2313070884,2273949824,2165717184,2589,2,16,21061
1342741727,5810,36.6899986267089840,25.7455005645751950,35.2098999023437500,237.5111999511718800,-18.2677803039550780,25.7480792999267580,27.5103492736816400,59,127,93,88,58,15159,2332748288,2344174756,2350170697,2194700699,2349689060,2337989933,2291935579,2169616804,2505,2,16,38443
1342741782,5807,33.1100006103515600,25.7443008422851560,35.2103004455566400,237.6692047119140600,-18.3147907257080080,25.7495498657226560,27.5026397705078120,59,127,92,88,57,15159,2356613760,2370872283,2379531657,2210925110,2372544612,2356744045,2304402998,2172913033,2294,2,16,12179
1342741837,5810,29.5200004577636720,25.7455997467041000,35.2099990844726560,237.6567993164062500,-18.5149307250976560,25.7558193206787100,27.5006904602050780,58,126,94,85,59,15163,2382503350,2398345344,2408845129,2231618477,2405958976,2387324452,2326574208,2180138477,2147,3,17,55831
1342741911,5809,25.1900005340576170,25.7530994415283200,35.2098999023437500,237.7294006347656200,-18.8556098937988280,25.7665004730224600,27.4934406280517580,57,126,97,86,54,15158,2395877540,2410973787,2421289069,2250016402,2437449307,2414693915,2345643456,2186278985,2106,2,17,58315
